Patterson, LA

2:44 AM CST on November 18, 2019 (GMT -0600)
Williams Memorial

Weather History for KPTN - September, 2019

Change the Weather History Date:

Wednesday, September 18, 2019

  Actual Average Record
Temperature  
Mean Temperature 82 °F -  
Max Temperature 90 °F 84 °F 93 °F (2018)
Min Temperature 75 °F 68 °F 59 °F (1999)
Cooling Degree Days 18    
Growing Degree Days 32 (Base 50)    
Moisture  
Dew Point 77 °F    
Average Humidity 87    
Maximum Humidity 100    
Minimum Humidity 68    
Precipitation  
Precipitation 0.00 in - - ()
Sea Level Pressure  
Sea Level Pressure 29.98 in    
Wind  
Wind Speed 4 mph (SE)    
Max Wind Speed 13 mph    
Max Gust Speed -    
Visibility 10 miles    
Events      
Averages and records for this station are not official NWS values.
T = Trace of Precipitation, MM = Missing Value Source: NWS Daily Summary

Daily Weather History Graph

Daily Weather History Graph

Search for Another Location

Airport or City:

Astronomy

Sep. 18, 2019 Rise Set
Actual Time 6:51 AM CDT 7:07 PM CDT
Civil Twilight 6:27 AM CDT 7:30 PM CDT
Nautical Twilight 5:59 AM CDT 7:58 PM CDT
Astronomical Twilight 5:31 AM CDT 8:26 PM CDT
Moon 9:59 PM CDT 10:38 AM CDT
Length of Visible Light 13h 03m
Length of Day
12h 15m
Waning Gibbous, 82% of the Moon is Illuminated
Sep 18
Waning Gibbous
Sep 21
Last Quarter
Sep 28
New
Oct 5
First Quarter
Oct 13
Full

Hourly Weather History & Observations

Time (CDT) Temp. Heat Index Dew Point Humidity Pressure Visibility Wind Dir Wind Speed Gust Speed Precip Events Conditions
12:56 AM 75.0 °F - 73.9 °F 96% 29.98 in 10.0 mi Calm Calm - N/A   Clear
1:56 AM 75.0 °F - 73.9 °F 96% 29.97 in 10.0 mi Calm Calm - N/A   Clear
2:56 AM 75.9 °F - 73.9 °F 94% 29.96 in 10.0 mi Calm Calm - N/A   Clear
3:56 AM 75.9 °F - 75.0 °F 97% 29.95 in 10.0 mi SE 3.5 mph - N/A   Clear
4:56 AM 77.0 °F - 75.9 °F 96% 29.95 in 10.0 mi East 4.6 mph - N/A   Clear
5:56 AM 77.0 °F - 75.9 °F 96% 29.96 in 10.0 mi ESE 3.5 mph - N/A   Clear
6:56 AM 77.0 °F - 77.0 °F 100% 29.99 in 10.0 mi Calm Calm - N/A   Clear
7:56 AM 79.0 °F - 79.0 °F 100% 30.00 in 10.0 mi East 3.5 mph - N/A   Clear
8:41 AM 80.6 °F 89.3 °F 80.6 °F 100% 30.00 in 10.0 mi ESE 5.8 mph - N/A   Clear
8:56 AM 82.0 °F 93.7 °F 81.0 °F 97% 30.01 in 10.0 mi ESE 4.6 mph - N/A   Clear
9:13 AM 82.4 °F 94.0 °F 80.6 °F 94% 30.01 in 10.0 mi SE 5.8 mph - N/A   Scattered Clouds
9:56 AM 84.9 °F 98.9 °F 80.1 °F 85% 30.01 in 10.0 mi Variable 4.6 mph - N/A   Overcast
10:24 AM 86.0 °F 99.3 °F 78.8 °F 79% 30.01 in 10.0 mi SSE 8.1 mph - N/A   Mostly Cloudy
10:38 AM 87.8 °F 104.9 °F 80.6 °F 79% 30.01 in 10.0 mi ESE 6.9 mph - N/A   Scattered Clouds
10:56 AM 88.0 °F 104.3 °F 80.1 °F 77% 30.01 in 10.0 mi SE 9.2 mph - N/A   Partly Cloudy
11:27 AM 87.8 °F 102.5 °F 78.8 °F 75% 30.00 in 10.0 mi South 9.2 mph - N/A   Mostly Cloudy
11:56 AM 89.1 °F 103.2 °F 78.1 °F 70% 30.00 in 10.0 mi South 10.4 mph - N/A   Partly Cloudy
1:56 PM 89.1 °F 106.4 °F 80.1 °F 75% 29.98 in 10.0 mi South 8.1 mph - N/A   Mostly Cloudy
2:24 PM 89.6 °F 104.7 °F 78.8 °F 70% 29.96 in 10.0 mi SSW 10.4 mph - N/A   Scattered Clouds
2:56 PM 90.0 °F 104.5 °F 78.1 °F 68% 29.96 in 10.0 mi SW 11.5 mph - N/A   Partly Cloudy
3:56 PM 87.1 °F 97.3 °F 75.9 °F 69% 29.95 in 10.0 mi SSW 8.1 mph - N/A   Clear
4:56 PM 86.0 °F 98.3 °F 78.1 °F 77% 29.96 in 10.0 mi SW 6.9 mph - N/A   Clear
5:32 PM 80.6 °F 86.2 °F 75.2 °F 84% 29.98 in 10.0 mi WNW 12.7 mph - N/A   Overcast
5:56 PM 80.1 °F 84.5 °F 73.9 °F 81% 29.97 in 10.0 mi Calm Calm - N/A   Scattered Clouds
6:56 PM 80.1 °F 84.5 °F 73.9 °F 81% 29.98 in 10.0 mi Calm Calm - N/A   Clear
7:56 PM 78.1 °F - 75.0 °F 90% 29.96 in 10.0 mi ENE 3.5 mph - N/A   Clear
8:56 PM 78.1 °F - 75.0 °F 90% 29.99 in 5.0 mi Calm Calm - N/A   Clear
9:56 PM 77.0 °F - 75.0 °F 94% 29.98 in 9.0 mi Calm Calm - N/A   Clear
10:56 PM 75.9 °F - 75.0 °F 97% 29.98 in 10.0 mi ENE 3.5 mph - N/A   Clear
11:56 PM 75.9 °F - 75.0 °F 97% 29.96 in 10.0 mi East 3.5 mph - N/A   Clear